#timestamp,LO_Frequency,Hit,StdDev 
1551862815.5,286047000.2,N
1551862835.4,286047000.2,N
1551862855.2,286047000.1,N
1551862875.0,286047002.3,N
1551862875.9,286047002.3,N
1551862895.8,286047003.5,Y
1551862915.6,286047002.7,P
1551862935.5,286047000.8,N
1551862955.3,286047002.4,N
1551862975.1,286047001.3,N
1551862995.9,286047001.8,N
1551863015.7,286047002.2,Y
1551863035.6,286047001.0,P
1551863055.4,286046999.7,N
1551863075.2,286046996.7,P
1551863095.1,286046996.9,N
1551863096.0,286046996.9,N
1551863115.8,286046998.7,N
1551863135.6,286046996.7,N
1551863155.5,286046995.0,N
1551863175.3,286046996.0,N
1551863195.2,286046995.8,N
1551863215.9,286046997.7,N
1551863235.7,286046997.0,N
1551863255.6,286046999.5,N
1551863275.4,286047000.1,N
1551863295.2,286047000.9,N
1551863315.1,286047000.8,N
1551863316.0,286047000.8,N
1551863335.8,286046999.0,N
1551863355.7,286046997.7,N
1551863375.5,286046997.2,N
1551863395.3,286046997.6,N
1551863415.2,286046996.8,N
1551863435.0,286046997.2,N
1551863435.9,286046997.2,N
1551863455.8,286046997.8,N
1551863475.6,286046996.6,N
1551863495.4,286046998.5,N
1551863515.3,286046999.6,N
1551863535.1,286046996.6,N
1551863555.8,286046998.2,N
1551863575.7,286047000.3,N
1551863595.5,286046999.6,N
1551863615.4,286046996.8,N
1551863635.2,286046999.3,N
1551863655.0,286046999.3,N
1551863655.9,286046999.3,N
1551863675.8,286046998.9,N
1551863695.6,286047001.1,N
1551863715.4,286046999.8,N
1551863735.3,286047002.8,N
1551863755.1,286046999.9,N
1551863775.9,286046999.8,N
1551863795.7,286047002.6,N
1551863815.5,286047000.3,N
1551863835.4,286046999.3,N
1551863855.2,286046998.3,N
1551863875.1,286047000.8,N
1551863876.0,286047000.8,N
1551863895.8,286047001.1,N
1551863915.6,286046998.1,N
1551863935.5,286046998.3,N
1551863955.3,286046998.1,N
1551863975.1,286046998.8,N
1551863995.9,286046998.2,N
1551864015.7,286046998.4,N
1551864035.6,286046998.4,N
1551864055.4,286046996.8,N
1551864075.2,286046997.8,N
1551864095.1,286046995.1,Y
1551864096.0,286046995.1,P
1551864115.8,286046996.8,N
1551864135.7,286046998.8,N
1551864155.5,286046999.4,N
1551864175.3,286046998.7,N
1551864195.2,286047000.8,N
1551864215.0,286046999.8,N
1551864215.9,286046999.8,N
1551864235.8,286047000.6,N
1551864255.6,286047000.3,N
1551864275.4,286047000.0,N
1551864295.3,286047000.6,N
1551864315.1,286046999.6,N
1551864335.9,286046997.6,N
1551864355.7,286046999.5,N
1551864375.5,286046999.2,N
1551864395.4,286047000.9,N
1551864415.2,286047000.3,N
1551864435.0,286046998.4,N
1551864435.9,286046998.4,N
1551864455.8,286046996.5,N
1551864475.6,286046999.0,N
1551864495.5,286046999.4,N
1551864515.3,286046996.6,N
1551864535.1,286046997.0,N
1551864555.9,286046998.9,N
1551864575.7,286046998.4,N
1551864595.5,286046998.7,N
1551864615.4,286046998.9,N
1551864635.2,286046998.5,N
1551864655.1,286047002.7,N
1551864656.0,286047002.7,N
1551864675.8,286047000.0,N
1551864695.6,286046999.0,N
1551864715.5,286046999.0,N
1551864735.3,286046997.0,N
1551864755.2,286046995.9,N
1551864775.9,286046997.6,N
1551864795.7,286046996.8,N
1551864815.6,286046997.4,N
1551864835.4,286046997.4,N
1551864855.3,286046998.3,N
1551864875.1,286046998.4,N
1551864876.0,286046998.4,N
1551864895.8,286047000.3,N
1551864915.7,286046999.9,N
1551864935.5,286047000.8,N
1551864955.4,286046998.2,N
1551864975.2,286046999.3,N
1551864995.0,286046997.1,N
1551864995.9,286046997.1,N
1551865015.8,286046996.5,N
1551865035.6,286046996.7,N
1551865055.4,286046999.4,N
1551865075.3,286046999.9,N
1551865095.1,286046998.3,N
1551865115.9,286046998.4,N
1551865135.7,286046999.2,N
1551865155.5,286047001.1,N
1551865175.4,286047002.2,N
1551865195.2,286047002.7,N
1551865215.1,286047000.0,N
1551865216.0,286047000.0,N
1551865235.8,286047011.9,Y
1551865255.7,286047002.0,P
1551865275.5,286047002.3,N
1551865295.3,286047001.8,N
1551865315.2,286047002.2,N
1551865335.0,286047000.0,N
1551865335.9,286047000.0,N
1551865385.8,286047000.8,E
1551865395.7,286046996.9,N
1551865415.5,286046997.8,P
1551865435.4,286046997.6,P
1551865455.2,286046996.6,Y
1551865475.0,286047002.5,P
1551865475.9,286047002.5,N
1551865495.8,286047001.5,N
1551865515.6,286047004.0,N
1551865535.5,286047002.3,N
1551865555.3,286047001.6,N
1551865575.1,286047001.6,N
1551865595.9,286047002.5,N
1551865615.7,286047000.1,N
1551865635.5,286047002.6,N
1551865655.4,286047001.9,N
1551865675.2,286047002.6,N
1551865695.1,286047002.0,N
1551865696.0,286047002.0,N
1551865715.8,286047004.0,N
1551865735.6,286047001.5,N
1551865755.5,286047002.9,N
1551865775.3,286047003.3,N
1551865795.2,286047003.5,N
1551865815.9,286047003.9,N
1551865835.7,286047004.0,N
1551865855.6,286047001.7,N
1551865875.4,286047004.0,N
1551865895.2,286047003.9,N
1551865915.1,286047001.6,N
1551865916.0,286047001.6,N
1551865935.8,286047001.4,N
1551865955.7,286047000.3,N
1551865975.5,286046998.5,N
1551865995.3,286046998.9,N
1551866015.2,286046999.3,N
1551866035.0,286046998.4,N
1551866035.9,286046998.4,N
1551866055.7,286046998.1,N
1551866075.6,286046999.9,N
1551866095.4,286047004.3,N
1551866115.3,286047002.0,N
1551866135.1,286047001.6,N
1551866136.0,286047001.6,N
1551866155.8,286047004.4,N
1551866175.7,286047002.6,N
1551866195.5,286046999.7,N
1551866215.4,286047002.6,N
1551866235.2,286047001.5,N
1551866255.0,286047001.3,N
1551866255.9,286047001.3,N
1551866275.8,286047003.9,N
1551866295.6,286047003.4,N
1551866315.4,286047003.2,N
1551866335.3,286047003.8,N
1551866355.1,286047003.5,N
1551866375.9,286047004.3,N
1551866395.7,286047001.6,N
